Location: Wellington
(41.3000°S, 174.7830°E)
Time: 16:25:08
(UTC+12:00)

Cosmos 1862 Rocket - Pass Details

Date: 24 January 2019
Orbit: 603 x 635 km, 82.5° (Epoch: 17 April)

Event Time Altitude Azimuth Distance (km) Brightness Sun altitude
Exits shadow 23:23:41 45° 101° (ESE) 866 4.1 -22.5°
Drops below altitude 10° 23:27:37 10° 160° (SSE) 2,014 6.6 -22.9°
Sets 23:29:55 0° 165° (SSE) 2,923 7.7 -23.1°
